Location: Williams Chapel
(35.3368°N, 89.8362°W)
Time: 04:59:03
(UTC+00:00)

ACS3 Solar Sail - Visible Passes

Search period start: 07 October 2024 00:00
Search period end: 17 October 2024 00:00
Orbit: 962 x 1036 km, 97.4° (Epoch: 06 October)

Date Brightness Start Highest point End Pass type
(mag) Time Alt. Az. Time Alt. Az. Time Alt. Az.
07 Oct 1.8 01:49:55 65° NE 01:49:55 65° NE 01:55:52 10° N visible
07 Oct 4.2 03:35:05 16° WNW 03:35:05 16° WNW 03:37:48 10° NW visible
08 Oct 3.2 00:37:01 17° ENE 00:38:02 18° ENE 00:42:01 10° NNE visible
08 Oct 2.2 02:22:11 61° NW 02:22:11 61° NW 02:27:38 10° NNW visible
09 Oct 2.5 01:09:16 32° ENE 01:09:24 32° ENE 01:14:55 10° N visible
09 Oct 3.3 02:54:26 33° WNW 02:54:26 33° WNW 02:58:58 10° NNW visible
10 Oct 2.0 01:41:31 57° NE 01:41:31 57° NE 01:47:09 10° N visible
10 Oct 4.1 03:26:40 18° WNW 03:26:40 18° WNW 03:29:31 10° NW visible
11 Oct 3.3 00:28:35 15° ENE 00:29:26 16° ENE 00:32:57 10° NNE visible
11 Oct 2.2 02:13:44 61° NW 02:13:44 61° NW 02:18:57 10° NNW visible
12 Oct 2.7 01:00:48 29° ENE 01:00:48 29° ENE 01:06:01 10° NNE visible
12 Oct 3.2 02:45:57 35° WNW 02:45:57 35° WNW 02:50:20 10° NNW visible
13 Oct 2.1 01:33:00 49° NE 01:33:00 49° NE 01:38:18 10° N visible
13 Oct 4.1 03:18:09 19° WNW 03:18:09 19° WNW 03:21:03 10° NW visible
14 Oct 3.4 00:20:01 13° ENE 00:20:44 14° ENE 00:23:38 10° NE visible
14 Oct 2.2 02:05:11 58° NNW 02:05:11 58° NNW 02:10:09 10° NNW visible
15 Oct 2.8 00:52:12 25° ENE 00:52:12 25° ENE 00:56:58 10° NNE visible
15 Oct 3.1 02:37:21 37° NW 02:37:21 37° NW 02:41:34 10° NNW visible
16 Oct 2.3 01:24:21 43° NE 01:24:21 43° NE 01:29:19 10° N visible
16 Oct 4.0 03:09:31 21° WNW 03:09:31 21° WNW 03:12:24 10° NW visible
